When you browse on this site, cookies collect data to enhance your experience and personalize the content and advertising you see.
Visit our Privacy Policy to learn more. By continuing to use the site, you agree to this use of cookies and data.
  • In Hungary
  • List of Countries
  • For 7 days
  • Water Temperature
  • Satellite Maps
  • Weather Map
  • News
  • Weather Widgets
  • user-avatar
    Login

    Hourly Weather Oksford

    Today, 16 January, Wednesday

    Time Temperature Precipitation Wind Pressure Humidity
    00:00 +7°C° 0 mm 5 mps 753 mmHg 90%
    01:00 +7°C° 0 mm 6 mps 753 mmHg 89%
    02:00 +7°C° 0 mm 6 mps 752 mmHg 89%
    03:00 +6°C° 0 mm 7 mps 751 mmHg 88%
    04:00 +6°C° 0 mm 7 mps 750 mmHg 88%
    05:00 +6°C° 0 mm 7 mps 750 mmHg 88%
    06:00 +6°C° 0 mm 7 mps 749 mmHg 89%
    07:00 +6°C° 0.2 mm 7 mps 748 mmHg 89%
    08:00 +8°C° 0.2 mm 7 mps 748 mmHg 89%
    09:00 +8°C° 0.2 mm 7 mps 747 mmHg 89%
    10:00 +8°C° 0.1 mm 7 mps 747 mmHg 86%
    11:00 +9°C° 0.1 mm 7 mps 746 mmHg 83%
    12:00 +9°C° 0.1 mm 7 mps 746 mmHg 80%
    13:00 +8°C° 0.6 mm 7 mps 746 mmHg 80%
    14:00 +5°C° 0.6 mm 6 mps 745 mmHg 81%
    15:00 +5°C° 0.6 mm 5 mps 745 mmHg 81%
    16:00 +3°C° 0.1 mm 5 mps 745 mmHg 83%
    17:00 +4°C° 0.1 mm 4 mps 745 mmHg 84%
    18:00 +3°C° 0.1 mm 4 mps 745 mmHg 86%
    19:00 +3°C° 0 mm 4 mps 746 mmHg 87%
    20:00 +3°C° 0 mm 4 mps 746 mmHg 87%
    21:00 +1°C° 0 mm 4 mps 746 mmHg 88%
    22:00 +3°C° 0 mm 4 mps 746 mmHg 88%
    23:00 +3°C° 0 mm 4 mps 746 mmHg 88%

    Tomorrow, 17 January, Thursday

    Time Temperature Precipitation Wind Pressure Humidity
    00:00 +3°C° 0 mm 4 mps 746 mmHg 89%
    01:00 +1°C° 0 mm 5 mps 747 mmHg 89%
    02:00 +1°C° 0 mm 5 mps 747 mmHg 88%
    03:00 +1°C° 0 mm 5 mps 748 mmHg 88%
    04:00 +1°C° 0 mm 5 mps 749 mmHg 88%
    05:00 0°C° 0 mm 4 mps 750 mmHg 88%
    06:00 0°C° 0 mm 4 mps 751 mmHg 89%
    07:00 0°C° 0 mm 5 mps 752 mmHg 86%
    08:00 -1°C° 0 mm 5 mps 753 mmHg 83%
    09:00 -1°C° 0 mm 5 mps 754 mmHg 80%
    10:00 0°C° 0 mm 5 mps 755 mmHg 73%
    11:00 0°C° 0 mm 5 mps 755 mmHg 67%
    12:00 +1°C° 0 mm 5 mps 756 mmHg 60%
    13:00 +1°C° 0 mm 5 mps 757 mmHg 61%
    14:00 +1°C° 0 mm 4 mps 757 mmHg 62%
    15:00 +2°C° 0 mm 3 mps 757 mmHg 64%
    16:00 +1°C° 0 mm 3 mps 757 mmHg 68%
    17:00 0°C° 0 mm 3 mps 758 mmHg 72%
    18:00 -1°C° 0 mm 2 mps 758 mmHg 76%
    19:00 -1°C° 0 mm 2 mps 759 mmHg 76%
    20:00 -1°C° 0 mm 2 mps 759 mmHg 76%
    21:00 +1°C° 0 mm 1 mps 759 mmHg 76%
    22:00 +1°C° 0 mm 1 mps 759 mmHg 75%
    23:00 +1°C° 0 mm 1 mps 759 mmHg 74%

    Day after tomorrow, 18 January, Friday

    Time Temperature Precipitation Wind Pressure Humidity
    00:00 +1°C° 0 mm 1 mps 759 mmHg 73%
    01:00 +1°C° 0 mm 1 mps 758 mmHg 74%
    02:00 -1°C° 0 mm 2 mps 758 mmHg 76%
    03:00 -1°C° 0 mm 2 mps 758 mmHg 77%
    04:00 -1°C° 0 mm 3 mps 757 mmHg 76%
    05:00 -1°C° 0 mm 3 mps 757 mmHg 75%
    06:00 -2°C° 0 mm 4 mps 756 mmHg 74%
    07:00 -1°C° 0 mm 4 mps 756 mmHg 73%
    08:00 0°C° 0 mm 4 mps 755 mmHg 72%
    09:00 +1°C° 0 mm 5 mps 755 mmHg 70%
    10:00 +2°C° 0 mm 6 mps 754 mmHg 70%
    11:00 +2°C° 0 mm 7 mps 754 mmHg 69%
    12:00 +2°C° 0 mm 8 mps 753 mmHg 69%
    13:00 +2°C° 0.2 mm 8 mps 753 mmHg 72%
    14:00 +3°C° 0.2 mm 7 mps 752 mmHg 75%
    15:00 +3°C° 0.2 mm 7 mps 751 mmHg 77%
    16:00 +3°C° 0.3 mm 7 mps 751 mmHg 81%
    17:00 +3°C° 0.3 mm 7 mps 751 mmHg 85%
    18:00 +2°C° 0.3 mm 8 mps 750 mmHg 88%
    19:00 +3°C° 0.2 mm 7 mps 750 mmHg 90%
    20:00 +3°C° 0.2 mm 6 mps 750 mmHg 91%
    21:00 +3°C° 0.2 mm 6 mps 750 mmHg 93%
    22:00 +3°C° 0.2 mm 5 mps 749 mmHg 94%
    23:00 +4°C° 0.2 mm 4 mps 749 mmHg 95%

    19 January, Saturday

    Time Temperature Precipitation Wind Pressure Humidity
    00:00 +4°C° 0.2 mm 3 mps 749 mmHg 96%
    01:00 +4°C° 0 mm 2 mps 749 mmHg 95%
    02:00 +3°C° 0 mm 2 mps 748 mmHg 94%
    03:00 +4°C° 0 mm 1 mps 748 mmHg 93%
    04:00 +3°C° 0 mm 1 mps 748 mmHg 93%
    05:00 +3°C° 0 mm 1 mps 748 mmHg 92%
    06:00 +3°C° 0 mm 1 mps 747 mmHg 91%
    07:00 +3°C° 0 mm 1 mps 748 mmHg 91%
    08:00 +3°C° 0 mm 1 mps 748 mmHg 91%
    09:00 +4°C° 0 mm 1 mps 748 mmHg 90%
    10:00 +5°C° 0 mm 1 mps 748 mmHg 87%
    11:00 +6°C° 0 mm 1 mps 748 mmHg 83%
    12:00 +8°C° 0 mm 1 mps 749 mmHg 79%
    13:00 +8°C° 0 mm 1 mps 749 mmHg 82%
    14:00 +8°C° 0 mm 1 mps 749 mmHg 84%
    15:00 +6°C° 0 mm 2 mps 749 mmHg 87%
    16:00 +5°C° 0 mm 2 mps 749 mmHg 90%
    17:00 +4°C° 0 mm 2 mps 749 mmHg 92%
    18:00 +3°C° 0 mm 2 mps 750 mmHg 95%
    19:00 +3°C° 0 mm 2 mps 750 mmHg 96%
    20:00 +2°C° 0 mm 2 mps 751 mmHg 96%
    21:00 +2°C° 0 mm 2 mps 752 mmHg 97%
    22:00 +2°C° 0 mm 2 mps 752 mmHg 97%
    23:00 +2°C° 0 mm 2 mps 753 mmHg 97%

    20 January, Sunday

    Time Temperature Precipitation Wind Pressure Humidity
    00:00 +2°C° 0 mm 2 mps 753 mmHg 97%
    01:00 +2°C° 0 mm 2 mps 753 mmHg 97%
    02:00 +2°C° 0 mm 2 mps 754 mmHg 97%
    03:00 +2°C° 0 mm 2 mps 754 mmHg 97%
    04:00 +2°C° 0 mm 2 mps 754 mmHg 96%
    05:00 +3°C° 0 mm 2 mps 755 mmHg 96%
    06:00 +3°C° 0 mm 2 mps 755 mmHg 96%
    07:00 +3°C° 0 mm 2 mps 756 mmHg 96%
    08:00 +3°C° 0 mm 2 mps 757 mmHg 95%
    09:00 +3°C° 0 mm 2 mps 758 mmHg 95%
    10:00 +4°C° 0.1 mm 2 mps 758 mmHg 94%
    11:00 +4°C° 0.1 mm 3 mps 758 mmHg 93%
    12:00 +4°C° 0.1 mm 3 mps 759 mmHg 92%
    13:00 +4°C° 0 mm 3 mps 759 mmHg 90%
    14:00 +5°C° 0 mm 3 mps 759 mmHg 89%
    15:00 +5°C° 0 mm 3 mps 760 mmHg 88%
    16:00 +4°C° 0 mm 3 mps 760 mmHg 90%
    17:00 +3°C° 0 mm 3 mps 761 mmHg 92%
    18:00 +1°C° 0 mm 3 mps 761 mmHg 94%
    19:00 +1°C° 0 mm 3 mps 762 mmHg 94%
    20:00 +1°C° 0 mm 3 mps 763 mmHg 94%
    21:00 +1°C° 0 mm 2 mps 763 mmHg 94%
    22:00 +1°C° 0 mm 2 mps 764 mmHg 94%
    23:00 -1°C° 0 mm 2 mps 764 mmHg 94%

    21 January, Monday

    Time Temperature Precipitation Wind Pressure Humidity
    00:00 -1°C° 0 mm 2 mps 764 mmHg 94%
    01:00 -1°C° 0 mm 2 mps 765 mmHg 93%
    02:00 -1°C° 0 mm 2 mps 765 mmHg 93%
    03:00 -2°C° 0 mm 2 mps 765 mmHg 92%
    04:00 -2°C° 0 mm 2 mps 765 mmHg 92%
    05:00 -2°C° 0 mm 2 mps 765 mmHg 91%
    06:00 -2°C° 0 mm 2 mps 765 mmHg 91%
    07:00 -2°C° 0 mm 2 mps 766 mmHg 90%
    08:00 -1°C° 0 mm 2 mps 766 mmHg 89%
    09:00 -1°C° 0 mm 2 mps 766 mmHg 87%
    10:00 +2°C° 0 mm 1 mps 766 mmHg 82%
    11:00 +3°C° 0 mm 1 mps 766 mmHg 77%
    12:00 +5°C° 0 mm 1 mps 766 mmHg 71%
    13:00 +5°C° 0 mm 1 mps 766 mmHg 72%
    14:00 +5°C° 0 mm 1 mps 765 mmHg 72%
    15:00 +5°C° 0 mm 1 mps 765 mmHg 73%
    16:00 +4°C° 0 mm 1 mps 765 mmHg 77%
    17:00 +2°C° 0 mm 1 mps 765 mmHg 82%
    18:00 +1°C° 0 mm 1 mps 765 mmHg 86%
    19:00 +1°C° 0 mm 1 mps 764 mmHg 87%
    20:00 -1°C° 0 mm 2 mps 764 mmHg 88%
    21:00 -1°C° 0 mm 2 mps 764 mmHg 89%
    22:00 -1°C° 0 mm 3 mps 763 mmHg 89%
    23:00 -1°C° 0 mm 3 mps 762 mmHg 89%
    Show more